[[{"header":{"parameterUnit":"m.s-1","parameterCategory":1,"la1":30.2991,"la2":30.254,"lo1":-89.0895,"lo2":-89.0444,"dy":0.0017,"dx":0.0017,"nx":28,"ny":28,"refTime":"2023-10-09T03:00:00:Z","depth":0,"parameterNumber":2,"parameterNumberName":"U-component_of_WINDS"},"data":[0,0,0,0,0,0,0,0,0,0,0,0,0,0,0,0,0,0,0,0,0,0,0,0,0,0,0,0,0,0,0,0,0,0,0,0,0,0,0,0,0,0,0,0,0,0,0,0,0,0,0,0,0,0,0,0,0,0,0.3901,0.39,0,0.3804,0.3803,0.3801,0.3738,0.3737,0.3737,0.3737,0.3636,0.3634,0.3631,0,0,0,0,0,0,0,0,0,0,0,0,0,0.403,0.4028,0.3901,0.39,0.3899,0.3804,0.3803,0.3801,0.3738,0.3737,0.3737,0.3736,0.3637,0.3634,0.3631,0,0,0,0,0,0,0,0,0,0,0,0,0,0.3957,0.4027,0.3901,0.3856,0.3851,0.3804,0.3802,0.3801,0.3738,0.3737,0.3737,0.3736,0.3637,0.3634,0.3631,0.3622,0,0,0.362,0.3619,0,0,0,0,0,0,0,0,0.3962,0.3953,0.3864,0.3859,0.3853,0.3782,0.3811,0.3741,0.3738,0.3781,0.3737,0.3736,0.3685,0.3678,0.3661,0.3617,0.3613,0.362,0.3618,0.3616,0.3615,0,0,0,0,0,0,0,0.3967,0.3956,0.3863,0.3862,0.3856,0.3839,0.3828,0.3797,0.3737,0.3777,0.3772,0.3762,0.3682,0.3664,0.3658,0.3611,0.362,0.3617,0.3615,0.3613,0.3553,0.3554,0,0,0,0,0,0,0.3979,0.3961,0.3866,0.386,0.3907,0.3837,0.3825,0.3806,0.3738,0.3727,0.3762,0.3759,0.367,0.3662,0.3654,0.3638,0.3616,0.3613,0.3611,0.3553,0.3553,0.3554,0,0,0,0,0,0,0.3982,0.3971,0.387,0.3909,0.3895,0.3836,0.3814,0.3804,0.3786,0.3726,0.3715,0.3755,0.367,0.3659,0.363,0.3634,0.3611,0.3608,0.3552,0.3553,0.3554,0.3607,0,0,0,0,0,0,0.3986,0.3973,0.3969,0.3909,0.3893,0.3848,0.3815,0.3803,0.378,0.3775,0.3717,0.3707,0.3668,0.3635,0.3626,0.3629,0.3606,0.3552,0.3552,0.3553,0.3605,0.361,0.3614,0,0,0,0,0,0.3991,0.3988,0.397,0.3958,0.3888,0.3848,0.3839,0.3795,0.3781,0.3777,0.3738,0.3708,0.3635,0.3633,0.3622,0.3624,0.3551,0.3552,0.3553,0.3603,0.3609,0.3614,0,0,0,0,0,0,0.405,0.398,0.3958,0.3936,0.3899,0.3838,0.3831,0.3803,0.3769,0.3765,0.3712,0.3699,0.3675,0.3646,0.3646,0.361,0.3589,0.3588,0.3631,0.3636,0.364,0.3648,0.3603,0,0,0,0,0,0.4061,0.4036,0.3975,0.3962,0.3944,0.3891,0.3872,0.3841,0.38,0.3784,0.3743,0.3704,0.3672,0.3652,0.3619,0.36,0.3586,0.3595,0.36,0.3604,0.3604,0.359,0.3594,0.3557,0.3557,0.3557,0,0,0.4083,0.4041,0.4028,0.3972,0.394,0.3914,0.3878,0.3853,0.3833,0.378,0.375,0.3719,0.3671,0.3647,0.3634,0.3622,0.361,0.3605,0.3609,0.3606,0.3592,0.3595,0.3599,0.3558,0.3558,0.3558,0,0,0.4109,0.4075,0.406,0.4028,0.3979,0.3943,0.394,0.3882,0.3859,0.3828,0.3788,0.3763,0.3709,0.3677,0.3653,0.3665,0.3637,0.3656,0.368,0.3667,0.367,0.3673,0.3677,0.3679,0.3656,0.3656,0.3656,0,0.4143,0.4103,0.4056,0.4032,0.4008,0.3959,0.3943,0.3914,0.3856,0.3841,0.3828,0.3758,0.3722,0.3689,0.3692,0.3675,0.3668,0.3663,0.3674,0.3676,0.3677,0.368,0.3682,0.3659,0.3658,0.3658,0.3658,0,0.4146,0.4119,0.4112,0.4058,0.4033,0.4013,0.3962,0.3943,0.3913,0.3879,0.3847,0.3803,0.376,0.3749,0.3721,0.3712,0.3706,0.3684,0.3662,0.3684,0.3686,0.3687,0.3663,0.3662,0.3661,0.366,0,0,0.4209,0.4128,0.4126,0.4101,0.4042,0.402,0.3997,0.3955,0.3939,0.39,0.3879,0.3834,0.3813,0.3786,0.3753,0.3742,0.3754,0.3721,0.3719,0.3729,0.374,0.3758,0.376,0.3734,0.3734,0.3734,0.3744,0,0.4227,0.4185,0.4141,0.4113,0.4087,0.4039,0.4019,0.398,0.3947,0.3919,0.3881,0.385,0.3825,0.3808,0.3795,0.3755,0.3756,0.3754,0.3714,0.3713,0.3728,0.3761,0.378,0.3792,0.3745,0.3745,0.3745,0,0.4243,0.4207,0.4177,0.4119,0.4107,0.409,0.4047,0.4021,0.3975,0.3952,0.3921,0.3886,0.3858,0.3838,0.3799,0.3799,0.3779,0.3757,0.3756,0.3752,0.3731,0.3758,0.3795,0.3797,0.3746,0.3746,0.3746,0,0.4292,0.4236,0.421,0.419,0.4122,0.4111,0.4082,0.4036,0.4013,0.3975,0.3959,0.3919,0.3897,0.3865,0.3819,0.3809,0.3785,0.3761,0.3764,0.3765,0.3762,0.3763,0.3797,0.3749,0.3749,0.3749,0.3749,0,0.4318,0.4301,0.4232,0.4216,0.4196,0.4144,0.4125,0.4092,0.4051,0.4028,0.3983,0.3961,0.3902,0.3873,0.3837,0.381,0.38,0.3779,0.377,0.3784,0.3787,0.3771,0.3769,0.3749,0.3749,0.3749,0.3749,0,0.437,0.4323,0.4292,0.423,0.4214,0.4202,0.4148,0.413,0.4094,0.4064,0.4054,0.3997,0.396,0.3911,0.3859,0.3835,0.3812,0.3797,0.3828,0.3823,0.3828,0.3829,0.3854,0.3855,0.3806,0.3807,0.3807,0,0.439,0.4376,0.4313,0.4294,0.4266,0.4236,0.4212,0.416,0.4137,0.4083,0.4072,0.4032,0.3998,0.3941,0.3895,0.3854,0.3838,0.385,0.3832,0.3846,0.3839,0.384,0.3838,0.3855,0.3856,0.3856,0.3857,0,0.443,0.4407,0.4375,0.4334,0.4306,0.4271,0.4234,0.4221,0.4161,0.4137,0.4099,0.4072,0.4019,0.398,0.3933,0.3902,0.3869,0.3862,0.3861,0.3875,0.3894,0.3884,0.3841,0.3863,0.3862,0.3862,0.3861,0.3861,0.4467,0.4452,0.4405,0.437,0.4336,0.4302,0.4282,0.4243,0.421,0.4163,0.4134,0.4097,0.405,0.3984,0.3954,0.3924,0.3912,0.391,0.3909,0.391,0.3914,0.3898,0.3916,0.3915,0.3915,0.3915,0.3915,0,0.4505,0.4472,0.444,0.4389,0.4361,0.4332,0.4289,0.4268,0.4236,0.4195,0.4162,0.4117,0.4079,0.4028,0.3985,0.3971,0.3955,0.3962,0.3963,0.3956,0.3928,0.3934,0.3975,0.3975,0.3975,0.3975,0.3975,0.3975,0.4522,0.4495,0.4466,0.4422,0.4388,0.4352,0.433,0.4297,0.4264,0.4217,0.4185,0.4152,0.4106,0.406,0.4022,0.4008,0.3995,0.4006,0.3988,0.3963,0.3958,0.3953,0.3958,0.4004,0.4004,0.4018,0.4018,0.4018]},{"header":{"parameterUnit":"m.s-1","parameterCategory":1,"la1":30.2991,"la2":30.254,"lo1":-89.0895,"lo2":-89.0444,"dy":0.0017,"dx":0.0017,"nx":28,"ny":28,"refTime":"2023-10-09T03:00:00:Z","depth":0,"parameterNumber":3,"parameterNumberName":"V-component_of_WINDS"},"data":[0,0,0,0,0,0,0,0,0,0,0,0,0,0,0,0,0,0,0,0,0,0,0,0,0,0,0,0,0,0,0,0,0,0,0,0,0,0,0,0,0,0,0,0,0,0,0,0,0,0,0,0,0,0,0,0,0,0,-1.4296,-1.4296,0,-1.4346,-1.4347,-1.4347,-1.4347,-1.4346,-1.4346,-1.4345,-1.4398,-1.44,-1.4402,0,0,0,0,0,0,0,0,0,0,0,0,0,-1.4201,-1.4202,-1.4296,-1.4296,-1.4297,-1.4346,-1.4347,-1.4347,-1.4347,-1.4346,-1.4345,-1.4345,-1.4397,-1.44,-1.4402,0,0,0,0,0,0,0,0,0,0,0,0,0,-1.4245,-1.4203,-1.4296,-1.4303,-1.4304,-1.4346,-1.4347,-1.4348,-1.4347,-1.4346,-1.4345,-1.4344,-1.4397,-1.44,-1.4403,-1.4442,0,0,-1.4412,-1.4413,0,0,0,0,0,0,0,0,-1.4243,-1.4249,-1.4301,-1.4302,-1.4304,-1.4339,-1.4333,-1.4379,-1.4347,-1.4331,-1.4345,-1.4344,-1.4379,-1.4384,-1.4396,-1.4444,-1.4446,-1.4412,-1.4414,-1.4415,-1.4416,0,0,0,0,0,0,0,-1.424,-1.4247,-1.4316,-1.4302,-1.4303,-1.4304,-1.4309,-1.4341,-1.436,-1.4332,-1.4332,-1.4338,-1.438,-1.4393,-1.4397,-1.4447,-1.4412,-1.4415,-1.4417,-1.4418,-1.453,-1.4531,0,0,0,0,0,0,-1.4235,-1.4244,-1.4314,-1.4317,-1.427,-1.4306,-1.4312,-1.4329,-1.436,-1.4363,-1.4339,-1.4338,-1.4388,-1.4393,-1.4399,-1.4446,-1.4415,-1.4418,-1.442,-1.4529,-1.453,-1.4531,0,0,0,0,0,0,-1.4233,-1.4241,-1.4312,-1.4281,-1.429,-1.4309,-1.4328,-1.433,-1.4343,-1.4365,-1.4368,-1.4348,-1.4387,-1.4394,-1.4431,-1.4448,-1.442,-1.4422,-1.4527,-1.4529,-1.4531,-1.4541,0,0,0,0,0,0,-1.423,-1.4241,-1.4255,-1.4281,-1.4291,-1.4343,-1.4329,-1.4332,-1.4348,-1.4347,-1.4375,-1.4378,-1.4387,-1.4426,-1.4434,-1.4452,-1.4425,-1.4526,-1.4528,-1.453,-1.4539,-1.4543,-1.4546,0,0,0,0,0,-1.4227,-1.4257,-1.4256,-1.4264,-1.431,-1.4344,-1.435,-1.4359,-1.4349,-1.4364,-1.4378,-1.4377,-1.4445,-1.443,-1.4438,-1.4457,-1.4525,-1.4527,-1.453,-1.4538,-1.4542,-1.4546,0,0,0,0,0,0,-1.4233,-1.426,-1.426,-1.4299,-1.4319,-1.4344,-1.4363,-1.4363,-1.4387,-1.4386,-1.4396,-1.4403,-1.4439,-1.4452,-1.4435,-1.4497,-1.4484,-1.4488,-1.4487,-1.4491,-1.4494,-1.4491,-1.4427,0,0,0,0,0,-1.4239,-1.4264,-1.4286,-1.4318,-1.4328,-1.4344,-1.4359,-1.4364,-1.4386,-1.4395,-1.4411,-1.4433,-1.4459,-1.4476,-1.4501,-1.4541,-1.4547,-1.4558,-1.4562,-1.4564,-1.4568,-1.459,-1.4596,-1.454,-1.454,-1.454,0,0,-1.4252,-1.4269,-1.4284,-1.432,-1.4336,-1.4362,-1.4351,-1.4379,-1.4398,-1.4399,-1.4434,-1.4447,-1.4472,-1.451,-1.4528,-1.4522,-1.4585,-1.4568,-1.457,-1.4572,-1.4594,-1.4599,-1.4604,-1.4541,-1.4541,-1.4541,0,0,-1.4287,-1.4303,-1.4332,-1.4348,-1.4372,-1.4382,-1.4389,-1.4414,-1.4422,-1.4458,-1.4459,-1.4482,-1.4526,-1.4544,-1.4558,-1.46,-1.46,-1.4608,-1.4626,-1.4647,-1.4652,-1.4656,-1.4671,-1.4676,-1.4612,-1.4612,-1.4612,0,-1.43,-1.4338,-1.4346,-1.4374,-1.439,-1.4391,-1.442,-1.4435,-1.4467,-1.4478,-1.4471,-1.4526,-1.4543,-1.4585,-1.4595,-1.4607,-1.4616,-1.4605,-1.465,-1.4654,-1.4658,-1.4673,-1.4678,-1.4612,-1.4612,-1.4612,-1.4612,0,-1.4352,-1.4379,-1.4399,-1.4429,-1.4446,-1.4475,-1.4487,-1.4505,-1.4508,-1.4519,-1.4555,-1.4575,-1.4604,-1.4614,-1.4618,-1.4657,-1.4653,-1.4648,-1.4635,-1.4664,-1.4678,-1.4683,-1.4614,-1.4613,-1.4613,-1.4613,0,0,-1.4394,-1.4427,-1.4435,-1.4448,-1.4475,-1.4496,-1.4524,-1.4551,-1.4566,-1.4588,-1.4612,-1.4649,-1.4644,-1.4661,-1.4667,-1.4686,-1.4717,-1.4679,-1.4679,-1.4685,-1.4762,-1.4765,-1.4772,-1.4717,-1.4718,-1.4719,-1.476,0,-1.4433,-1.4482,-1.449,-1.4534,-1.4558,-1.4559,-1.4584,-1.4603,-1.4614,-1.4637,-1.4649,-1.4675,-1.4667,-1.4677,-1.4696,-1.471,-1.4733,-1.4707,-1.474,-1.4741,-1.4734,-1.4779,-1.4783,-1.482,-1.4765,-1.4766,-1.4767,0,-1.4485,-1.4507,-1.4553,-1.4576,-1.4586,-1.4608,-1.4634,-1.4655,-1.4677,-1.4684,-1.4702,-1.4706,-1.4735,-1.4721,-1.4762,-1.4744,-1.4758,-1.4767,-1.4769,-1.4772,-1.4756,-1.4784,-1.4832,-1.4838,-1.4775,-1.4774,-1.4774,0,-1.4511,-1.4552,-1.4585,-1.4596,-1.4624,-1.4639,-1.4651,-1.4672,-1.4688,-1.4711,-1.4721,-1.4747,-1.4762,-1.4782,-1.4793,-1.4781,-1.4833,-1.482,-1.484,-1.4839,-1.4851,-1.485,-1.4902,-1.486,-1.4859,-1.4859,-1.4859,0,-1.4553,-1.4581,-1.4597,-1.4617,-1.4648,-1.4657,-1.4688,-1.47,-1.4718,-1.4741,-1.4744,-1.4765,-1.4778,-1.4801,-1.481,-1.4842,-1.4849,-1.4855,-1.4857,-1.4855,-1.4854,-1.4865,-1.4863,-1.4861,-1.4861,-1.486,-1.486,0,-1.4588,-1.4599,-1.4635,-1.4657,-1.4664,-1.4686,-1.4706,-1.4726,-1.4736,-1.4765,-1.4772,-1.4789,-1.4816,-1.4828,-1.4863,-1.4868,-1.4906,-1.4906,-1.4898,-1.4899,-1.4919,-1.4917,-1.498,-1.4988,-1.4939,-1.494,-1.494,0,-1.4614,-1.4636,-1.4661,-1.4676,-1.4688,-1.4712,-1.4728,-1.4738,-1.4755,-1.4781,-1.4797,-1.4825,-1.4847,-1.4891,-1.4907,-1.4933,-1.4934,-1.4954,-1.4938,-1.4935,-1.4935,-1.4933,-1.4936,-1.4957,-1.4958,-1.4958,-1.4958,0,-1.466,-1.4665,-1.4687,-1.4712,-1.4731,-1.4751,-1.477,-1.4783,-1.4795,-1.4814,-1.4842,-1.4859,-1.4894,-1.4921,-1.4948,-1.4961,-1.4962,-1.4963,-1.4969,-1.4968,-1.4962,-1.4966,-1.4907,-1.4962,-1.4962,-1.4961,-1.4961,-1.4961,-1.4692,-1.4711,-1.4731,-1.4756,-1.4772,-1.479,-1.4809,-1.4822,-1.4845,-1.4873,-1.4877,-1.4907,-1.4928,-1.4964,-1.4978,-1.5002,-1.4997,-1.5006,-1.5008,-1.5011,-1.5012,-1.4958,-1.5007,-1.5007,-1.5007,-1.5007,-1.5007,0,-1.4738,-1.4751,-1.4774,-1.4801,-1.4821,-1.4819,-1.484,-1.4857,-1.4883,-1.4902,-1.4924,-1.4956,-1.4982,-1.4999,-1.5026,-1.5042,-1.5043,-1.5048,-1.5048,-1.5051,-1.5014,-1.5007,-1.5047,-1.5047,-1.5047,-1.5047,-1.5047,-1.5047,-1.4765,-1.4797,-1.4803,-1.4843,-1.4855,-1.4884,-1.4896,-1.4913,-1.4928,-1.4964,-1.4985,-1.4996,-1.5014,-1.5042,-1.5067,-1.5071,-1.5081,-1.5087,-1.5091,-1.5057,-1.5053,-1.5049,-1.5042,-1.5089,-1.5089,-1.5125,-1.5126,-1.5126]}]]